timestamp,wind_dir_avg,wind_spd_avg,wind_spd_max_dir,wind_spd_gust,battery_voltage,lat,long
2024-03-13 00:04:00+00:00,44.0,6.06,45.0,6.84,12.25,47.59359,-54.27349
2024-03-13 00:14:00+00:00,22.0,4.08,41.0,4.96,12.17,47.59359,-54.27349
2024-03-13 00:24:00+00:00,338.0,3.69,333.0,4.06,12.17,47.59359,-54.27349
2024-03-13 00:34:00+00:00,347.0,1.33,61.0,2.61,12.17,47.59359,-54.27349
2024-03-13 00:44:00+00:00,62.0,3.35,60.0,4.17,12.17,47.59359,-54.27349
2024-03-13 00:54:00+00:00,60.0,4.63,64.0,5.25,12.17,47.59359,-54.27349
2024-03-13 01:04:00+00:00,55.0,6.41,62.0,8.68,12.17,47.59359,-54.27349
2024-03-13 01:14:00+00:00,53.0,6.0,56.0,7.2,12.17,47.59359,-54.27349
2024-03-13 01:24:00+00:00,56.0,5.5,61.0,7.21,12.17,47.59359,-54.27349
2024-03-13 01:34:00+00:00,52.0,6.32,55.0,7.06,12.17,47.59359,-54.27349
2024-03-13 01:44:00+00:00,45.0,6.39,50.0,6.98,12.17,47.59359,-54.27349
2024-03-13 01:54:00+00:00,126.0,2.19,124.0,3.76,12.17,47.59359,-54.27349
2024-03-13 02:04:00+00:00,65.0,3.98,67.0,4.83,12.17,47.59359,-54.27349
2024-03-13 02:14:00+00:00,66.0,6.47,73.0,8.84,12.17,47.59359,-54.27349
2024-03-13 02:24:00+00:00,57.0,7.09,61.0,9.73,12.17,47.59359,-54.27349
2024-03-13 02:34:00+00:00,51.0,4.25,49.0,4.56,12.17,47.59359,-54.27349
2024-03-13 02:44:00+00:00,53.0,4.98,53.0,5.46,12.17,47.59359,-54.27349
2024-03-13 02:54:00+00:00,57.0,4.79,59.0,5.19,12.17,47.59359,-54.27349
2024-03-13 03:04:00+00:00,57.0,4.82,61.0,5.5,12.17,47.59359,-54.27349
2024-03-13 03:14:00+00:00,57.0,5.4,73.0,9.24,12.17,47.59359,-54.27349
2024-03-13 03:24:00+00:00,43.0,5.05,43.0,5.82,12.17,47.59359,-54.27349
2024-03-13 03:34:00+00:00,67.0,4.21,68.0,5.13,12.17,47.59359,-54.27349
2024-03-13 03:44:00+00:00,69.0,4.82,73.0,9.12,12.17,47.59359,-54.27349
2024-03-13 03:54:00+00:00,56.0,5.94,64.0,8.48,12.17,47.59359,-54.27349
2024-03-13 04:04:00+00:00,70.0,6.78,77.0,9.66,12.17,47.59359,-54.27349
2024-03-13 04:14:00+00:00,50.0,3.52,54.0,4.34,12.17,47.59359,-54.27349
2024-03-13 04:24:00+00:00,330.0,4.4,338.0,4.98,12.17,47.59359,-54.27349
2024-03-13 04:34:00+00:00,337.0,3.99,342.0,4.8,12.17,47.59359,-54.27349
2024-03-13 04:44:00+00:00,46.0,5.48,49.0,6.08,12.17,47.59359,-54.27349
2024-03-13 04:54:00+00:00,52.0,2.48,61.0,3.86,12.17,47.59359,-54.27349
2024-03-13 05:04:00+00:00,51.0,4.69,51.0,5.25,12.17,47.59359,-54.27349
2024-03-13 05:14:00+00:00,53.0,7.37,61.0,10.69,12.09,47.59359,-54.27349
2024-03-13 05:24:00+00:00,59.0,9.76,59.0,10.96,12.09,47.59359,-54.27349
2024-03-13 05:34:00+00:00,47.0,6.74,61.0,10.08,12.09,47.59359,-54.27349
2024-03-13 05:44:00+00:00,40.0,6.51,60.0,9.89,12.09,47.59359,-54.27349
2024-03-13 05:54:00+00:00,59.0,8.09,66.0,10.06,12.09,47.59359,-54.27349
2024-03-13 06:04:00+00:00,51.0,6.2,60.0,9.99,12.09,47.59359,-54.27349
2024-03-13 06:14:01+00:00,46.0,5.95,60.0,8.52,12.09,47.59359,-54.27349
2024-03-13 06:24:01+00:00,48.0,5.14,54.0,5.89,12.09,47.59359,-54.27349
2024-03-13 06:34:01+00:00,41.0,5.3,39.0,6.21,12.09,47.59359,-54.27349
2024-03-13 06:44:01+00:00,53.0,6.61,65.0,9.7,12.09,47.59359,-54.27349
2024-03-13 06:54:01+00:00,46.0,5.55,61.0,7.98,12.09,47.59359,-54.27349
2024-03-13 07:04:01+00:00,40.0,3.95,45.0,4.87,12.09,47.59359,-54.27349
2024-03-13 07:14:00+00:00,49.0,4.35,46.0,5.35,12.09,47.59359,-54.27349
2024-03-13 07:24:00+00:00,36.0,3.04,51.0,4.49,12.09,47.59359,-54.27349
2024-03-13 07:34:00+00:00,54.0,3.7,52.0,4.5,12.09,47.59359,-54.27349
2024-03-13 07:44:00+00:00,39.0,3.53,51.0,4.51,12.09,47.59359,-54.27349
2024-03-13 07:54:00+00:00,18.0,3.38,45.0,4.75,12.09,47.59359,-54.27349
2024-03-13 08:04:00+00:00,9.0,3.38,46.0,4.73,12.09,47.59359,-54.27349
2024-03-13 08:14:01+00:00,344.0,6.12,344.0,6.83,12.09,47.59359,-54.27349
2024-03-13 08:24:01+00:00,343.0,4.66,345.0,5.49,12.09,47.59359,-54.27349
2024-03-13 08:34:01+00:00,338.0,4.56,340.0,5.01,12.09,47.59359,-54.27349
2024-03-13 08:44:01+00:00,339.0,4.4,345.0,5.98,12.09,47.59359,-54.27349
2024-03-13 08:54:01+00:00,31.0,5.14,34.0,6.64,12.09,47.59359,-54.27349
2024-03-13 09:04:01+00:00,8.0,3.92,33.0,5.09,12.09,47.59359,-54.27349
2024-03-13 09:14:00+00:00,35.0,5.03,38.0,6.02,12.01,47.59359,-54.27349
2024-03-13 09:24:00+00:00,35.0,5.4,38.0,6.13,12.01,47.59359,-54.27349
2024-03-13 09:34:00+00:00,35.0,6.7,35.0,7.28,12.01,47.59359,-54.27349
2024-03-13 09:44:00+00:00,30.0,6.01,34.0,6.94,12.01,47.59359,-54.27349
2024-03-13 09:54:00+00:00,27.0,6.14,30.0,6.73,12.01,47.59359,-54.27349
2024-03-13 10:04:00+00:00,355.0,4.87,351.0,5.53,12.01,47.59359,-54.27349
2024-03-13 10:14:00+00:00,333.0,4.21,334.0,4.79,12.01,47.59359,-54.27349
2024-03-13 10:24:00+00:00,332.0,4.22,331.0,4.9,12.01,47.59359,-54.27349
2024-03-13 10:34:00+00:00,354.0,4.2,332.0,5.26,12.01,47.59359,-54.27349
2024-03-13 10:44:00+00:00,16.0,3.61,18.0,4.9,12.01,47.59359,-54.27349
2024-03-13 10:54:00+00:00,3.0,6.97,1.0,8.31,12.01,47.59359,-54.27349
2024-03-13 11:04:00+00:00,2.0,4.54,3.0,7.82,12.01,47.59359,-54.27349
2024-03-13 11:14:00+00:00,315.0,0.01,20.0,0.0,12.01,47.59359,-54.27349
2024-03-13 11:24:00+00:00,358.0,3.3,359.0,7.1,12.01,47.59359,-54.27349
2024-03-13 11:34:00+00:00,355.0,4.77,356.0,8.21,12.01,47.59359,-54.27349
2024-03-13 11:44:00+00:00,353.0,3.94,351.0,4.16,12.01,47.59359,-54.27349
2024-03-13 11:54:00+00:00,352.0,3.74,353.0,4.06,12.01,47.59359,-54.27349
2024-03-13 12:04:00+00:00,6.0,4.53,29.0,5.21,12.01,47.59359,-54.27349
2024-03-13 12:14:00+00:00,356.0,5.59,357.0,6.22,12.09,47.59359,-54.27349
2024-03-13 12:24:00+00:00,7.0,5.32,19.0,6.19,12.09,47.59359,-54.27349
2024-03-13 12:34:00+00:00,11.0,5.63,19.0,6.52,12.09,47.59359,-54.27349
2024-03-13 12:44:00+00:00,19.0,5.25,22.0,6.09,12.09,47.59359,-54.27349
2024-03-13 12:54:00+00:00,9.0,4.98,20.0,5.78,12.09,47.59359,-54.27349
2024-03-13 13:04:00+00:00,15.0,5.2,20.0,5.96,12.09,47.59359,-54.27349
2024-03-13 13:14:00+00:00,7.0,5.29,7.0,7.21,12.73,47.59359,-54.27349
2024-03-13 13:24:00+00:00,353.0,4.94,354.0,5.54,12.73,47.59359,-54.27349
2024-03-13 13:34:00+00:00,0.0,4.64,335.0,5.71,12.73,47.59359,-54.27349
2024-03-13 13:44:00+00:00,342.0,5.34,343.0,6.37,12.73,47.59359,-54.27349
2024-03-13 13:54:00+00:00,1.0,4.68,0.0,5.35,12.73,47.59359,-54.27349
2024-03-13 14:04:00+00:00,356.0,4.19,7.0,5.24,12.73,47.59359,-54.27349
2024-03-13 14:14:00+00:00,340.0,6.22,345.0,6.9,13.6,47.59359,-54.27349
2024-03-13 14:24:00+00:00,336.0,4.97,338.0,5.62,13.6,47.59359,-54.27349
2024-03-13 14:34:00+00:00,341.0,4.2,34.0,5.85,13.6,47.59359,-54.27349
2024-03-13 14:44:00+00:00,26.0,4.46,37.0,5.48,13.6,47.59359,-54.27349
2024-03-13 14:54:00+00:00,6.0,3.26,40.0,4.16,13.6,47.59359,-54.27349
2024-03-13 15:04:00+00:00,38.0,5.59,39.0,6.53,13.6,47.59359,-54.27349
2024-03-13 15:14:00+00:00,37.0,6.72,54.0,9.89,13.76,47.59359,-54.27349
2024-03-13 15:24:00+00:00,33.0,6.31,32.0,6.79,13.76,47.59359,-54.27349
2024-03-13 15:34:00+00:00,39.0,5.7,37.0,6.59,13.76,47.59359,-54.27349
2024-03-13 15:44:00+00:00,47.0,7.35,56.0,10.11,13.76,47.59359,-54.27349
2024-03-13 15:54:00+00:00,57.0,7.64,62.0,9.95,13.76,47.59359,-54.27349
2024-03-13 16:04:00+00:00,60.0,8.81,61.0,10.43,13.76,47.59359,-54.27349
2024-03-13 16:14:00+00:00,63.0,10.25,63.0,10.95,13.68,47.59359,-54.27349
2024-03-13 16:24:00+00:00,58.0,9.07,60.0,10.82,13.68,47.59359,-54.27349
2024-03-13 16:34:00+00:00,57.0,9.79,58.0,11.36,13.68,47.59359,-54.27349
2024-03-13 16:44:00+00:00,55.0,8.91,57.0,10.45,13.68,47.59359,-54.27349
2024-03-13 16:54:00+00:00,45.0,7.31,56.0,9.46,13.68,47.59359,-54.27349
2024-03-13 17:04:00+00:00,45.0,5.46,60.0,7.53,13.68,47.59359,-54.27349
2024-03-13 17:14:00+00:00,59.0,7.83,62.0,9.83,13.53,47.59359,-54.27349
2024-03-13 17:24:00+00:00,47.0,5.27,55.0,6.35,13.53,47.59359,-54.27349
2024-03-13 17:34:00+00:00,75.0,9.35,77.0,10.33,13.53,47.59359,-54.27349
2024-03-13 17:44:00+00:00,77.0,7.83,66.0,10.36,13.53,47.59359,-54.27349
2024-03-13 17:54:00+00:00,76.0,6.72,78.0,10.26,13.53,47.59359,-54.27349
2024-03-13 18:04:00+00:00,70.0,9.2,69.0,10.1,13.53,47.59359,-54.27349
2024-03-13 18:14:00+00:00,70.0,9.24,71.0,9.99,13.53,47.59359,-54.27349
2024-03-13 18:24:00+00:00,59.0,11.38,55.0,12.4,13.53,47.59359,-54.27349
2024-03-13 18:34:00+00:00,58.0,11.31,58.0,12.23,13.53,47.59359,-54.27349
2024-03-13 18:44:00+00:00,57.0,11.17,56.0,12.42,13.53,47.59359,-54.27349
2024-03-13 18:54:00+00:00,54.0,11.3,52.0,12.48,13.53,47.59359,-54.27349
2024-03-13 19:04:00+00:00,53.0,10.4,51.0,12.3,13.53,47.59359,-54.27349
2024-03-13 19:14:00+00:00,53.0,10.95,52.0,12.68,13.44,47.59359,-54.27349
2024-03-13 19:24:00+00:00,56.0,10.98,56.0,12.18,13.44,47.59359,-54.27349
2024-03-13 19:34:00+00:00,57.0,11.6,55.0,12.45,13.44,47.59359,-54.27349
2024-03-13 19:44:00+00:00,59.0,11.01,60.0,11.99,13.44,47.59359,-54.27349
2024-03-13 19:54:00+00:00,55.0,11.18,54.0,12.53,13.44,47.59359,-54.27349
2024-03-13 20:04:00+00:00,58.0,11.26,55.0,12.35,13.44,47.59359,-54.27349
2024-03-13 20:14:00+00:00,57.0,11.21,57.0,12.29,13.29,47.59359,-54.27349
2024-03-13 20:24:00+00:00,57.0,10.84,59.0,11.95,13.29,47.59359,-54.27349
2024-03-13 20:34:00+00:00,56.0,10.53,57.0,12.05,13.29,47.59359,-54.27349
2024-03-13 20:44:00+00:00,49.0,10.76,54.0,12.2,13.29,47.59359,-54.27349
2024-03-13 20:54:00+00:00,56.0,11.24,58.0,12.31,13.29,47.59359,-54.27349
2024-03-13 21:04:00+00:00,56.0,10.45,59.0,11.97,13.29,47.59359,-54.27349
2024-03-13 21:14:00+00:00,52.0,11.17,52.0,12.52,12.97,47.59359,-54.27349
2024-03-13 21:24:00+00:00,55.0,11.28,57.0,12.61,12.97,47.59359,-54.27349
2024-03-13 21:34:00+00:00,56.0,10.97,56.0,12.16,12.97,47.59359,-54.27349
2024-03-13 21:44:00+00:00,51.0,10.67,54.0,12.4,12.97,47.59359,-54.27349
2024-03-13 21:54:00+00:00,46.0,10.73,49.0,12.32,12.97,47.59359,-54.27349
2024-03-13 22:04:00+00:00,50.0,11.5,48.0,13.07,12.97,47.59359,-54.27349
2024-03-13 22:14:00+00:00,50.0,11.86,47.0,13.27,12.41,47.59359,-54.27349
2024-03-13 22:24:00+00:00,44.0,12.43,42.0,13.64,12.41,47.59359,-54.27349
2024-03-13 22:34:00+00:00,47.0,11.78,44.0,13.45,12.41,47.59359,-54.27349
2024-03-13 22:44:00+00:00,49.0,11.76,49.0,12.84,12.41,47.59359,-54.27349
2024-03-13 22:54:00+00:00,47.0,11.56,44.0,13.58,12.41,47.59359,-54.27349
2024-03-13 23:04:00+00:00,48.0,11.25,49.0,12.83,12.41,47.59359,-54.27349
2024-03-13 23:14:00+00:00,48.0,11.68,49.0,12.72,12.25,47.59359,-54.27349
2024-03-13 23:24:00+00:00,45.0,11.93,47.0,13.4,12.25,47.59359,-54.27349
2024-03-13 23:34:00+00:00,44.0,12.28,44.0,13.25,12.25,47.59359,-54.27349
2024-03-13 23:44:00+00:00,44.0,11.65,47.0,13.44,12.25,47.59359,-54.27349
2024-03-13 23:54:00+00:00,42.0,11.64,47.0,12.74,12.25,47.59359,-54.27349
